Date,TemperatureHighF,TemperatureAvgF,TemperatureLowF,DewpointHighF,DewpointAvgF,DewpointLowF,HumidityHigh,HumidityAvg,HumidityLow,PressureMaxIn,PressureMinIn,WindSpeedMaxMPH,WindSpeedAvgMPH,GustSpeedMaxMPH,PrecipitationSumIn
2013-1-1,44.7,38.9,34.0,44.7,36.7,28.8,100,92,81,30.19,29.92,18,1,18,0.44
2013-1-2,38.8,33.5,29.7,28.9,27.5,25.7,87,79,63,30.24,30.15,12,0,13,0.01
2013-1-3,46.9,36.5,27.7,31.2,27.7,24.9,91,72,46,30.37,30.23,13,0,14,0.01
2013-1-4,47.2,41.0,34.3,31.0,27.8,26.0,73,61,45,30.42,30.24,0,0,0,0.00
2013-1-5,50.2,41.5,38.3,37.0,34.9,30.0,89,78,59,30.24,30.10,0,0,0,0.00
2013-1-6,43.6,36.6,30.6,36.0,31.4,21.0,91,82,41,30.26,30.18,6,0,0,0.00
2013-1-7,34.1,31.7,30.1,23.0,20.7,20.0,70,64,58,30.24,30.20,0,0,0,0.00
2013-1-11,62.1,61.4,60.7,58.5,54.7,51.4,89,79,68,29.68,29.65,3,0,17,0.07
2013-1-12,64.0,49.8,34.0,61.3,46.8,30.4,93,90,75,29.79,29.63,13,5,19,0.02
2013-1-13,28.8,28.8,28.8,17.4,17.4,17.4,62,62,62,30.19,30.19,4,4,17,0.00
2013-1-15,31.2,29.5,27.8,25.5,22.8,20.1,91,77,63,30.14,30.13,0,0,17,0.04
2013-1-16,23.6,23.6,23.6,15.9,15.9,15.9,72,72,72,30.16,30.16,0,0,17,0.00
2013-1-17,54.4,54.0,53.6,30.7,30.5,30.4,41,41,40,30.30,30.30,6,5,17,0.00
2013-1-25,46.7,42.7,40.3,38.0,36.7,36.0,88,79,67,30.10,30.05,0,0,0,0.02
2013-1-26,48.5,43.6,41.3,49.0,41.6,37.0,100,92,83,30.12,29.99,0,0,0,0.01
2013-1-27,70.6,58.7,48.5,66.0,51.9,-99.9,100,90,66,29.99,29.78,13,3,0,0.01
2013-1-28,74.4,68.8,65.6,64.0,62.7,61.0,91,81,68,29.87,29.66,13,3,0,0.00
2013-1-29,73.7,63.6,50.7,65.0,57.8,35.0,97,82,53,29.67,29.29,17,4,0,0.50
2013-1-30,50.2,44.1,35.9,40.0,28.0,20.0,81,55,33,30.02,29.51,18,4,0,0.00
2013-1-31,65.8,42.7,32.5,30.0,24.7,19.0,69,53,21,30.24,29.96,18,4,0,0.00
2013-2-1,55.9,38.5,24.8,33.0,23.3,13.0,72,56,38,30.30,30.06,10,2,0,0.00
2013-2-2,64.5,53.1,39.8,40.0,33.9,30.0,80,52,28,30.20,30.00,9,1,0,0.00
2013-2-3,66.1,52.5,37.9,36.0,31.3,28.0,77,48,26,30.20,29.84,6,0,0,0.00
2013-2-4,68.1,57.9,48.6,54.0,46.1,32.0,95,67,41,29.84,29.66,18,1,0,0.10
2013-2-5,61.3,55.4,48.9,61.0,53.7,-99.9,100,99,96,29.90,29.76,5,0,0,0.02
2013-2-6,66.9,58.1,53.1,67.0,56.4,-99.9,100,99,96,29.90,29.76,13,2,0,0.02
2013-2-7,76.8,61.2,49.8,61.0,52.3,-99.9,100,80,28,29.97,29.65,20,5,0,0.00
2013-2-8,59.9,49.3,39.5,43.0,33.5,26.0,82,58,27,30.16,29.98,15,3,0,0.00
2013-2-9,58.0,46.3,42.5,58.0,42.1,34.0,100,86,65,30.02,29.62,21,4,0,0.01
2013-2-10,65.6,57.6,45.4,64.0,36.8,-99.9,100,56,21,29.91,29.52,13,1,0,1.05
2013-2-11,55.7,47.7,41.8,35.0,30.3,27.0,73,52,35,30.07,29.91,9,0,0,0.00
2013-2-12,47.3,44.4,39.2,47.0,42.7,35.0,100,94,74,29.98,29.75,16,1,0,0.48
2013-2-13,54.2,44.1,38.0,39.0,30.8,-99.9,100,73,53,30.03,29.89,8,0,0,0.00
2013-2-14,66.3,50.7,36.8,40.0,33.6,28.0,92,58,24,30.00,29.88,11,0,0,0.00
2013-2-15,49.6,43.8,34.6,38.0,25.1,14.0,86,50,28,30.27,30.01,22,6,0,0.02
2013-2-16,52.6,41.4,31.6,30.0,25.8,21.0,77,56,33,30.31,30.05,10,0,0,0.00
2013-2-17,70.1,54.3,38.5,44.0,31.2,24.0,71,46,18,30.05,29.74,24,2,0,0.00
2013-2-18,72.0,58.9,47.9,55.0,42.3,30.0,81,57,26,30.00,29.59,24,6,0,0.00
2013-2-19,58.6,47.9,36.3,30.0,24.8,20.0,68,43,24,30.23,30.00,11,1,0,0.00
2013-2-20,48.3,40.4,36.0,42.0,35.1,28.0,98,82,45,30.11,29.78,26,6,0,0.35
2013-2-21,59.0,48.9,39.5,46.0,39.4,33.0,97,72,42,29.83,29.54,13,2,0,0.23
2013-2-22,45.1,35.9,27.3,33.0,22.7,17.0,81,61,39,30.05,29.81,13,2,0,0.00
2013-2-23,51.6,38.2,27.0,29.0,24.3,21.0,77,59,35,30.00,29.84,7,0,0,0.00
2013-2-24,65.3,46.3,34.9,42.0,33.3,26.0,80,63,35,29.83,29.60,12,2,0,0.00
2013-2-25,54.5,48.4,37.9,50.0,39.3,32.0,94,72,47,29.53,29.30,12,3,0,0.04
2013-2-26,55.9,44.8,38.3,33.0,30.5,27.0,80,60,35,29.79,29.47,22,4,0,0.00
2013-2-27,54.5,43.1,34.3,31.0,26.7,17.0,83,56,25,30.11,29.78,16,3,0,0.00
2013-2-28,56.3,43.0,31.5,29.0,25.5,20.0,82,54,26,30.17,30.05,14,4,0,0.00
2013-3-1,50.8,40.5,32.1,29.0,27.1,24.0,82,61,40,30.20,30.09,13,2,0,0.00
2013-3-2,51.1,39.2,28.2,25.0,21.2,17.0,72,51,27,30.32,30.12,14,2,0,0.00
2013-3-3,68.3,52.3,34.6,40.0,28.1,22.0,65,42,23,30.12,29.61,21,5,0,0.00
2013-3-4,85.7,66.7,53.6,47.0,39.6,31.0,64,42,14,29.67,29.41,21,7,0,0.00
2013-3-5,54.1,47.9,41.9,40.0,25.7,15.0,71,46,22,30.23,29.69,25,10,0,0.00
2013-3-6,59.3,45.5,31.9,24.0,20.5,14.0,64,40,17,30.36,30.09,7,0,0,0.00
2013-3-7,68.8,54.0,37.3,32.0,24.6,20.0,56,35,17,30.12,29.97,14,2,0,0.00
2013-3-8,61.8,56.7,52.0,53.0,46.7,32.0,80,70,43,30.07,29.84,20,2,0,0.00
2013-3-9,64.8,60.8,55.9,64.0,57.9,53.0,100,90,74,29.84,29.52,18,4,0,0.37
2013-3-10,56.0,47.2,38.2,56.0,37.4,-99.9,100,74,56,29.97,29.56,17,1,0,0.30
2013-3-11,56.9,43.2,31.2,29.0,22.4,13.0,87,50,18,30.00,29.88,8,1,0,0.00
2013-3-12,63.9,49.3,36.0,36.0,27.2,16.0,69,45,19,30.19,29.92,11,1,0,0.00
2013-3-13,64.2,53.5,39.3,37.0,30.6,25.0,68,44,27,30.35,30.20,6,0,0,0.00
2013-3-14,75.8,60.5,46.8,47.0,38.1,31.0,60,46,28,30.22,30.02,17,1,0,0.00
2013-3-15,80.3,65.5,52.3,52.0,46.1,40.0,85,54,24,30.02,29.71,17,3,0,0.00
2013-3-16,79.4,68.5,56.9,57.0,52.3,44.0,82,58,43,29.71,29.54,16,3,0,0.00
2013-3-17,67.8,61.6,51.0,61.0,51.1,43.0,85,69,51,29.64,29.54,14,1,0,0.00
2013-3-18,66.3,55.4,46.5,45.0,41.1,35.0,90,62,35,29.91,29.51,16,4,0,0.00
2013-3-19,63.5,53.7,42.5,40.0,32.6,26.0,76,49,26,30.01,29.86,9,1,0,0.00
2013-3-20,63.5,53.0,40.9,37.0,29.1,-99.9,70,45,23,30.20,29.92,0,0,0,0.00
2013-3-21,65.3,53.7,47.1,49.0,36.5,29.0,67,53,42,29.91,29.46,12,3,0,0.02
2013-3-22,49.9,45.2,41.5,46.0,42.2,37.0,99,90,62,29.75,29.48,14,3,0,0.03
2013-3-23,51.1,48.3,44.8,51.0,42.7,-99.9,100,96,45,29.74,29.55,9,0,0,0.38
2013-3-24,49.8,42.6,36.9,47.0,23.9,-99.9,100,56,22,30.08,29.71,20,8,0,0.02
2013-3-25,49.6,39.8,29.0,23.0,16.9,11.0,70,43,22,30.29,30.08,17,4,0,0.00
2013-3-26,54.2,40.6,28.4,24.0,19.3,15.0,66,45,25,30.39,30.20,2,0,0,0.00
2013-3-27,67.8,53.0,38.6,39.0,29.4,22.0,56,42,26,30.20,29.96,14,2,0,0.00
2013-3-28,69.8,60.2,48.9,55.0,48.5,37.0,85,66,53,30.09,29.95,13,3,0,0.00
2013-3-29,76.0,67.1,60.4,57.0,55.5,54.0,84,68,48,30.04,29.90,13,2,0,0.00
2013-3-30,77.0,66.2,55.7,68.0,60.0,56.0,100,82,59,29.92,29.75,14,1,0,0.54
2013-3-31,72.0,64.4,56.7,63.0,53.7,44.0,100,72,38,29.85,29.66,10,1,0,0.52
2013-4-1,76.5,63.3,49.1,49.0,45.5,40.0,85,56,29,29.95,29.83,6,0,0,0.00
2013-4-2,61.8,55.3,47.6,55.0,49.8,46.0,98,82,67,29.93,29.82,16,3,0,0.25
2013-4-3,50.5,47.1,42.2,50.0,44.3,36.0,100,91,74,30.03,29.89,11,1,0,0.15
2013-4-4,52.8,44.7,40.3,41.0,40.1,39.0,98,85,63,30.09,30.00,8,1,0,0.03
2013-4-5,67.9,54.1,39.6,48.0,42.6,38.0,96,69,40,30.13,29.89,3,0,0,0.00
2013-4-6,74.7,63.8,54.8,57.0,50.2,42.0,80,63,37,29.89,29.70,16,3,0,0.00
2013-4-7,70.4,65.4,58.7,60.0,58.6,55.0,91,79,68,29.76,29.59,20,4,0,0.00
2013-4-8,75.1,69.1,64.2,63.0,60.3,57.0,84,74,64,29.60,29.51,21,4,0,0.00
2013-4-9,78.3,72.8,67.8,65.0,62.8,59.0,85,72,58,29.57,29.48,18,4,0,0.00
2013-4-10,73.0,44.9,37.8,66.0,41.6,32.0,97,88,70,29.88,29.54,20,5,0,0.33
2013-4-11,58.9,47.3,37.2,39.0,33.0,27.0,81,60,38,29.87,29.69,12,1,0,0.00
2013-4-12,72.5,57.3,42.9,46.0,40.9,37.0,81,57,31,29.88,29.72,8,0,0,0.00
2013-4-13,78.3,64.0,48.3,49.0,44.6,39.0,80,53,25,29.88,29.63,13,2,0,0.00
2013-4-14,80.1,67.7,55.4,63.0,55.2,46.0,83,65,49,29.63,29.39,18,3,0,0.00
2013-4-15,85.7,75.7,67.1,67.0,65.0,63.0,96,71,50,29.58,29.43,16,3,0,0.00
2013-4-16,84.9,76.3,69.8,67.0,64.5,62.0,87,68,48,29.77,29.59,17,3,0,0.00
2013-4-17,82.4,76.6,72.8,71.0,66.9,64.0,92,73,56,29.73,29.45,22,4,0,0.00
2013-4-18,75.1,52.5,42.1,70.0,43.3,31.0,97,73,49,30.04,29.36,17,4,0,0.76
2013-4-19,63.1,48.7,35.6,37.0,28.4,21.0,80,50,23,30.15,30.01,12,1,0,0.00
2013-4-20,69.4,57.2,42.8,38.0,33.3,29.0,67,43,23,30.07,29.90,10,1,0,0.00
2013-4-21,69.8,58.2,46.1,47.0,42.6,37.0,80,58,41,30.09,29.95,11,1,0,0.00
2013-4-22,74.6,64.0,52.2,58.0,50.7,43.0,75,63,49,30.00,29.70,16,2,0,0.00
2013-4-23,66.4,52.6,39.5,61.0,48.8,36.0,96,87,69,30.07,29.64,14,3,0,0.00
2013-4-24,60.2,47.4,36.8,37.0,31.7,27.0,92,59,29,30.21,30.08,16,3,0,0.04
2013-4-25,71.3,57.0,39.5,44.0,36.6,30.0,70,49,27,30.22,30.00,8,0,0,0.00
2013-4-26,73.2,65.0,56.6,65.0,54.7,43.0,86,70,51,30.05,29.84,12,2,0,0.00
2013-4-27,72.7,65.9,55.9,66.0,57.5,52.0,90,75,53,29.96,29.80,14,1,0,0.00
2013-4-28,80.3,65.6,50.2,63.0,55.7,49.0,99,74,43,29.90,29.71,5,0,0,0.00
2013-4-29,85.3,73.0,60.1,65.0,59.0,52.0,97,66,33,29.75,29.64,13,1,0,0.00
2013-4-30,80.9,71.2,59.0,62.0,59.4,56.0,93,68,49,29.69,29.60,11,2,0,0.00
2013-5-1,84.0,71.7,62.4,66.0,61.8,59.0,97,74,45,29.84,29.64,13,1,0,0.00
2013-5-2,65.0,49.2,40.8,60.0,43.4,35.0,92,81,71,30.22,29.82,21,5,0,0.11
2013-5-3,63.9,50.5,37.2,36.0,30.4,22.0,87,52,20,30.20,29.90,25,4,0,0.00
2013-5-4,68.6,54.4,41.8,39.0,32.9,18.0,73,49,15,29.91,29.77,14,2,0,0.00
2013-5-5,63.4,53.6,43.9,47.0,41.8,37.0,79,65,51,30.03,29.90,14,2,0,0.00
2013-5-6,76.8,62.6,48.5,53.0,48.8,43.0,91,64,31,29.98,29.85,6,0,0,0.00
2013-5-7,81.8,69.0,53.2,55.0,51.0,45.0,87,56,28,29.94,29.79,7,0,0,0.00
2013-5-8,83.0,71.7,61.0,58.0,53.8,45.0,76,55,27,29.85,29.71,13,2,0,0.00
2013-5-9,72.8,68.7,64.3,67.0,62.5,57.0,97,81,59,29.81,29.70,12,1,0,0.01
2013-5-10,80.7,70.0,61.5,64.0,59.3,53.0,99,73,39,29.91,29.76,10,1,0,0.00
2013-5-11,79.6,68.5,56.3,56.0,50.7,42.0,87,57,27,30.05,29.89,14,2,0,0.00
2013-5-12,78.1,65.6,51.6,52.0,38.0,28.0,66,41,17,30.13,30.00,10,0,0,0.00
2013-5-13,86.7,72.4,58.6,50.0,44.3,36.0,51,38,24,30.08,29.93,10,0,0,0.00
2013-5-14,86.1,75.5,64.7,59.0,53.2,48.0,67,47,29,29.98,29.83,18,1,0,0.00
2013-5-15,78.6,70.3,62.0,68.0,64.3,54.0,100,82,58,29.87,29.62,13,2,0,1.36
2013-5-16,69.4,66.5,64.3,69.0,66.3,38.0,100,99,37,29.71,29.58,6,0,0,0.43
2013-5-17,87.0,76.2,67.8,77.0,72.8,68.0,100,90,61,29.71,29.63,6,0,0,0.01
2013-5-18,89.0,80.1,71.1,77.0,66.1,-99.9,100,75,52,29.73,29.59,16,3,0,0.00
2013-5-19,86.1,79.1,70.3,70.0,67.6,65.0,83,69,56,29.64,29.49,22,4,0,0.00
2013-5-20,86.3,78.2,69.1,70.0,67.7,62.0,83,71,56,29.63,29.47,18,4,0,0.00
2013-5-21,78.1,67.5,60.2,74.0,62.1,-99.9,100,91,73,29.72,29.55,20,1,0,1.32
2013-5-22,84.0,69.3,54.5,77.0,59.1,51.0,100,75,32,29.81,29.70,1,0,0,0.00
2013-5-23,66.9,66.5,65.6,65.0,62.4,59.0,95,87,76,29.77,29.74,0,0,0,0.00
2013-5-28,81.6,78.8,76.5,67.0,65.9,65.0,71,65,58,29.64,29.59,9,2,0,0.00
2013-5-29,81.6,75.6,72.1,72.0,68.8,67.0,95,80,66,29.69,29.54,21,4,0,0.13
2013-5-30,87.0,79.4,73.2,72.0,70.3,69.0,88,74,59,29.62,29.51,22,5,0,0.01
2013-5-31,88.0,81.5,76.1,73.0,71.3,70.0,84,72,57,29.66,29.48,20,3,0,0.00
2013-6-1,81.1,77.0,70.8,72.0,68.8,61.0,89,76,64,29.83,29.51,19,3,0,0.06
2013-6-2,79.2,70.5,61.0,61.0,55.6,48.0,90,62,37,29.94,29.81,10,1,0,0.00
2013-6-3,86.3,73.2,58.3,64.0,59.5,56.0,92,65,39,29.86,29.70,6,0,0,0.00
2013-6-4,88.0,76.2,67.3,73.0,66.6,62.0,100,74,52,29.89,29.65,13,2,0,0.40
2013-6-5,88.4,77.9,70.4,78.0,69.9,66.0,100,78,47,29.82,29.62,11,0,0,0.11
2013-6-6,75.3,70.8,65.8,73.0,67.8,63.0,100,91,73,29.81,29.66,11,0,0,1.55
2013-6-7,81.4,71.4,61.6,63.0,58.8,53.0,96,68,39,29.86,29.75,6,0,0,0.00
2013-6-8,85.5,73.7,60.7,63.0,59.3,55.0,88,63,41,29.79,29.64,10,1,0,0.00
2013-6-9,87.4,76.5,67.1,69.0,66.2,62.0,100,72,49,29.78,29.60,21,0,0,0.34
2013-6-10,95.6,82.2,69.4,71.0,67.2,61.0,91,64,33,29.80,29.73,6,0,0,0.00
2013-6-11,91.4,83.1,72.5,73.0,70.0,66.0,90,66,49,29.85,29.75,11,1,0,0.00
2013-6-12,93.2,83.2,73.9,74.0,70.8,68.0,93,68,44,29.87,29.76,11,1,0,0.00
2013-6-13,97.5,85.3,73.5,72.0,69.8,66.0,84,62,37,29.88,29.73,3,0,0,0.00
2013-6-14,96.1,85.8,74.2,73.0,70.1,67.0,89,62,40,29.83,29.73,5,0,0,0.00
2013-6-15,93.2,81.9,73.7,76.0,72.9,68.0,93,75,50,29.85,29.73,12,1,0,0.05
2013-6-16,95.6,83.0,72.5,75.0,71.3,68.0,94,70,45,29.85,29.70,10,0,0,0.00
2013-6-17,86.1,77.5,67.8,73.0,70.3,66.0,100,79,61,29.87,29.70,10,0,0,0.68
2013-6-18,83.8,75.3,70.8,70.0,68.7,67.0,90,80,62,29.87,29.75,7,0,0,0.00
2013-6-19,88.6,78.4,68.3,81.0,70.7,68.0,100,79,53,29.86,29.73,6,0,0,0.00
2013-6-20,92.1,83.3,74.9,74.0,70.6,66.0,94,68,45,29.87,29.76,11,2,0,0.00
2013-6-21,91.4,83.5,74.9,72.0,69.3,66.0,88,64,43,29.90,29.80,12,2,0,0.00
2013-6-22,91.6,83.2,73.7,71.0,68.7,66.0,89,63,44,29.87,29.72,14,3,0,0.00
2013-6-23,91.4,83.5,74.6,72.0,68.9,66.0,87,63,44,29.82,29.72,13,2,0,0.00
2013-6-24,91.6,83.2,74.6,71.0,68.7,66.0,84,63,45,29.86,29.73,10,2,0,0.00
2013-6-25,93.4,84.7,76.3,71.0,68.6,65.0,79,60,41,29.82,29.65,14,3,0,0.00
2013-6-26,94.9,85.5,76.1,72.0,69.3,65.0,75,59,44,29.79,29.66,12,2,0,0.00
2013-6-27,99.9,87.3,76.0,74.0,70.4,67.0,77,59,34,29.83,29.69,6,0,0,0.00
2013-6-28,95.1,84.0,79.0,72.0,68.1,65.0,70,59,42,29.79,29.68,0,0,0,0.00
2013-6-29,92.1,85.2,77.7,67.0,61.7,58.0,68,47,32,29.75,29.65,7,0,0,0.00
2013-7-9,86.1,76.3,85.3,63.0,44.2,-99.9,47,40,44,29.84,0.00,1,-111,0,0.00
2013-7-10,85.3,81.8,80.5,71.0,66.5,63.0,71,60,47,29.85,29.83,0,0,0,0.00
2013-7-11,100.4,85.2,78.5,71.0,67.2,63.0,69,56,30,29.79,29.71,12,1,0,0.00
2013-7-12,94.7,80.5,72.3,73.0,69.3,65.0,96,71,39,29.83,29.73,2,0,0,0.00
2013-7-13,92.1,81.1,73.9,70.0,65.1,58.0,81,60,34,29.85,29.72,7,0,0,0.00
2013-7-14,80.9,73.3,69.4,72.0,65.8,59.0,99,79,50,29.88,29.75,0,0,0,0.11
2013-7-15,75.3,70.7,64.8,73.0,65.9,-99.9,100,91,78,29.97,29.83,2,0,0,0.23
2013-7-16,88.6,78.7,71.8,78.0,65.9,-99.9,100,78,51,30.04,29.94,3,0,0,0.00
2013-7-17,91.2,81.1,72.0,74.0,69.9,67.0,96,71,47,30.09,29.99,11,1,0,0.00
2013-7-18,92.9,81.0,71.5,76.0,69.9,66.0,95,71,41,30.04,29.85,0,0,0,0.14
2013-7-19,94.7,79.2,73.5,74.0,71.3,66.0,95,79,39,29.89,29.77,10,0,0,0.28
2013-7-20,94.0,81.8,72.0,74.0,70.8,66.0,99,73,41,29.82,29.68,10,0,0,0.00
2013-7-21,97.1,83.9,73.2,76.0,71.4,66.0,96,70,38,29.76,29.66,7,0,0,0.02
2013-7-22,98.5,86.5,77.2,75.0,71.3,67.0,90,63,38,29.79,29.67,10,1,0,0.00
2013-7-23,98.5,89.4,80.1,75.0,71.7,66.0,77,57,40,29.79,29.63,7,1,0,0.00
2013-7-24,91.0,79.7,70.4,76.0,69.5,65.0,99,73,46,29.92,29.67,8,0,0,0.26
2013-7-25,91.6,82.1,70.1,72.0,69.4,68.0,98,68,46,29.91,29.81,4,0,0,0.00
2013-7-26,92.3,79.0,72.1,82.0,73.0,69.0,100,83,55,29.88,29.68,17,1,0,1.02
2013-7-27,88.4,77.9,70.4,71.0,67.4,65.0,93,72,47,29.88,29.77,9,0,0,0.00
2013-7-28,91.0,79.6,69.3,70.0,67.0,63.0,96,69,40,29.85,29.73,11,1,0,0.00
2013-7-29,91.8,85.0,77.4,74.0,71.3,67.0,90,64,49,29.84,29.77,13,2,0,0.00
2013-7-30,98.2,86.1,74.0,73.0,68.8,62.0,86,58,38,29.90,29.78,10,1,0,0.01
2013-7-31,98.5,87.8,77.9,76.0,70.1,65.0,75,57,40,29.87,29.76,6,0,0,0.00
2013-8-1,97.3,83.8,77.4,76.0,74.4,71.0,90,74,43,29.86,29.75,5,0,0,0.00
2013-8-2,102.8,90.0,78.1,73.0,68.2,63.0,78,52,28,29.78,29.68,13,1,0,0.00
2013-8-3,99.9,89.4,78.8,69.0,66.2,60.0,71,48,27,29.85,29.73,11,1,0,0.00
2013-8-4,99.7,85.2,76.3,71.0,67.1,58.0,80,58,26,29.89,29.77,7,0,0,0.00
2013-8-5,102.0,89.3,79.2,71.0,67.2,60.0,75,51,27,29.82,29.66,11,0,0,0.00
2013-8-6,103.1,90.6,78.3,71.0,65.5,60.0,69,46,25,29.71,29.61,17,1,0,0.00
2013-8-7,105.7,69.1,83.0,68.0,19.6,-99.9,58,28,25,29.69,29.56,8,-273,0,0.00
2013-8-8,100.4,88.8,79.4,74.0,67.3,62.0,69,51,30,29.72,29.59,8,0,0,0.00
2013-8-9,102.8,86.4,77.7,73.0,67.7,60.0,82,57,26,29.80,29.65,16,0,0,0.21
2013-8-10,93.6,82.8,75.3,74.0,70.1,64.0,92,68,38,29.91,29.81,11,0,0,0.00
2013-8-11,99.2,86.5,73.7,73.0,67.9,62.0,89,58,30,29.91,29.80,5,0,0,0.00
2013-8-12,99.9,86.7,76.0,71.0,68.0,62.0,79,57,29,29.87,29.74,11,0,0,0.00
2013-8-13,93.8,83.2,76.8,73.0,70.7,68.0,86,67,43,29.85,29.74,11,1,0,0.00
2013-8-14,90.1,80.5,73.7,72.0,68.7,63.0,92,70,44,29.89,29.79,12,1,0,0.00
2013-8-15,89.5,77.4,67.3,65.0,59.9,56.0,73,57,37,29.94,29.80,6,0,0,0.00
2013-8-16,86.1,74.6,65.3,69.0,63.3,60.0,99,71,45,29.94,29.83,12,0,0,0.24
2013-8-17,84.9,71.3,62.6,61.0,59.0,56.0,89,68,39,29.97,29.90,3,0,0,0.00
2013-8-19,92.3,81.8,76.5,59.0,57.4,55.0,53,44,28,29.86,29.80,6,1,0,0.00
2013-8-20,95.9,82.3,69.4,63.0,58.6,53.0,73,48,24,29.89,29.79,6,0,0,0.00
2013-8-21,95.6,82.7,71.5,67.0,60.5,55.0,74,50,27,29.92,29.82,8,0,0,0.00
2013-8-22,99.2,87.5,73.7,69.0,63.8,59.0,71,48,27,29.92,29.76,11,0,0,0.00
2013-8-23,97.8,85.0,74.0,73.0,68.0,64.0,93,59,34,29.87,29.77,16,0,0,0.04
2013-8-24,99.2,86.8,74.6,70.0,65.9,59.0,81,53,27,29.91,29.81,12,1,0,0.00
2013-8-25,97.8,86.0,73.3,69.0,64.7,59.0,83,52,29,29.99,29.89,11,1,0,0.00
2013-8-26,95.6,84.7,73.7,68.0,62.5,55.0,77,50,27,30.02,29.89,10,0,0,0.00
2013-8-27,91.8,80.9,72.8,71.0,67.0,61.0,88,65,38,29.97,29.84,11,0,0,0.00
2013-8-28,95.6,79.0,71.6,70.0,67.2,65.0,85,69,36,29.93,29.86,4,0,0,0.00
2013-8-31,105.4,90.0,76.3,66.0,59.7,-99.9,65,40,21,29.73,0.00,6,-10,0,0.00
2013-9-1,106.2,89.3,77.4,67.0,61.6,-99.9,64,43,21,29.69,29.59,7,-10,0,0.00
2013-9-2,96.1,85.3,76.0,73.0,68.2,61.0,89,59,39,29.84,29.68,6,0,0,0.01
2013-9-3,97.8,84.3,72.8,65.0,59.0,48.0,69,45,19,29.84,29.73,6,0,0,0.00
2013-9-4,98.5,85.2,72.5,69.0,63.9,59.0,81,52,28,29.90,29.80,8,1,0,0.00
2013-9-5,99.0,85.6,72.0,66.0,60.2,56.0,65,44,26,29.95,29.85,6,0,0,0.00
2013-9-6,99.4,62.1,69.9,65.0,19.2,-99.9,70,36,27,29.93,29.79,5,-257,0,0.00
2013-9-7,-200.0,0.0,200.0,-99.9,-99.9,-99.9,0,0,100,29.91,29.78,0,-999,0,0.00
2013-9-8,-200.0,0.0,200.0,-99.9,-99.9,-99.9,0,0,100,29.86,29.75,0,-999,0,0.00
2013-9-9,95.6,48.1,82.8,62.0,-15.5,-99.9,47,19,27,29.88,29.73,13,-467,0,0.10
2013-9-10,93.8,82.5,72.1,70.0,61.4,49.0,82,52,26,29.95,29.79,12,1,0,0.00
2013-9-11,95.1,81.7,69.9,68.0,63.4,60.0,77,56,32,29.97,29.85,7,0,0,0.00
2013-9-12,97.5,83.8,72.0,68.0,64.5,59.0,82,55,28,29.91,29.76,11,0,0,0.00
2013-9-13,96.8,82.8,73.5,69.0,66.1,59.0,81,60,30,29.82,29.68,8,0,0,0.00
2013-9-14,91.6,80.0,70.3,68.0,58.2,53.0,75,49,31,29.85,29.74,7,1,0,0.00
2013-9-15,94.9,81.7,68.3,69.0,59.5,51.0,55,47,35,29.88,29.79,5,0,0,0.00
2013-9-16,94.9,84.2,73.0,67.0,62.1,59.0,65,49,32,29.93,29.80,6,0,0,0.00
2013-9-17,95.1,83.8,73.2,66.0,62.9,60.0,71,51,32,29.91,29.79,10,0,0,0.00
2013-9-18,95.1,85.1,76.5,68.0,62.1,-99.9,69,50,32,29.85,29.71,9,1,0,0.00
2013-9-19,91.0,82.0,71.1,73.0,66.3,60.0,97,61,43,29.83,29.71,16,1,0,0.63
2013-9-20,74.4,72.3,66.4,74.0,61.6,-99.9,100,90,69,29.80,29.72,13,1,0,0.25
2013-9-21,82.6,69.7,59.5,57.0,49.7,42.0,79,53,24,29.86,29.73,7,1,0,0.00
2013-9-22,83.4,69.2,56.5,55.0,49.0,46.0,74,51,28,29.81,29.67,3,0,0,0.00
2013-9-23,83.4,70.1,57.3,55.0,51.3,45.0,81,55,27,29.73,29.61,7,1,0,0.00
2013-9-24,91.8,76.0,62.1,63.0,51.1,40.0,82,49,17,29.78,29.68,11,0,0,0.00
2013-9-25,93.8,76.0,58.1,56.0,49.5,44.0,79,43,18,29.76,29.62,2,0,0,0.00
2013-9-26,93.2,80.8,69.8,58.0,53.4,49.0,53,40,25,29.73,29.63,7,0,0,0.00
2013-9-27,87.6,78.1,66.1,69.0,63.5,58.0,77,62,48,29.79,29.69,14,2,0,0.00
2013-9-28,82.0,73.3,63.9,74.0,67.9,58.0,98,84,63,29.91,29.70,11,2,0,0.48
2013-9-29,79.9,68.6,60.7,58.0,51.0,34.0,89,58,20,29.91,29.77,10,1,0,0.00
2013-9-30,85.5,70.8,55.7,60.0,51.2,41.0,84,54,22,29.79,29.67,5,0,0,0.00
2013-10-1,88.2,77.1,66.9,72.0,65.9,60.0,100,72,39,29.80,29.68,8,1,0,0.00
2013-10-2,87.6,78.0,72.5,72.0,69.3,66.0,95,76,51,29.84,29.70,11,1,0,0.00
2013-10-3,88.2,79.4,72.1,72.0,68.7,65.0,92,71,47,29.77,29.63,13,2,0,0.00
2013-10-4,87.0,79.5,73.2,72.0,67.8,64.0,93,69,47,29.76,29.66,12,3,0,0.00
2013-10-5,77.7,61.2,49.8,70.0,55.9,42.0,100,83,64,29.97,29.70,12,2,0,0.30
2013-10-6,72.1,58.9,47.4,52.0,39.7,26.0,100,59,18,29.98,29.88,11,1,0,0.01
2013-10-7,77.4,63.2,50.1,43.0,37.1,29.0,69,42,17,30.03,29.93,0,0,0,0.00
2013-10-8,78.6,64.3,49.9,50.0,45.5,39.0,78,53,29,29.99,29.86,5,0,0,0.00
2013-10-9,80.3,66.9,53.5,55.0,51.1,49.0,88,60,35,29.94,29.84,10,1,0,0.00
2013-10-10,81.8,69.7,59.2,62.0,56.0,53.0,87,64,40,29.92,29.73,13,2,0,0.00
2013-10-11,82.2,74.2,66.1,68.0,65.5,58.0,94,75,60,29.78,29.66,13,2,0,0.00
2013-10-12,91.0,77.0,67.1,72.0,69.6,63.0,95,79,47,29.93,29.71,8,0,0,0.06
2013-10-13,74.7,70.5,66.3,75.0,67.6,64.0,100,91,77,30.07,29.92,5,0,0,0.01
2013-10-14,72.7,70.1,67.3,73.0,63.6,-99.9,100,93,83,30.00,29.78,8,1,0,1.06
2013-10-15,73.7,63.5,52.5,74.0,46.0,-99.9,100,89,100,29.95,29.74,14,3,0,0.27
2013-10-16,62.7,56.1,50.8,54.0,19.9,-99.9,100,60,52,29.99,29.88,12,2,0,0.12
2013-10-17,71.8,56.8,43.8,49.0,45.2,41.0,96,69,37,30.00,29.85,0,0,0,0.00
2013-10-18,69.8,58.4,48.9,55.0,49.5,45.0,90,74,44,29.97,29.76,9,0,0,0.00
2013-10-19,64.5,50.8,38.9,45.0,37.4,33.0,89,64,32,30.09,29.95,14,1,0,0.00
2013-10-20,69.9,55.7,42.2,44.0,39.9,35.0,87,60,29,29.95,29.73,14,1,0,0.00
2013-10-21,66.8,55.9,48.3,57.0,48.7,40.0,92,77,69,29.98,29.77,12,2,0,0.00
2013-10-22,76.3,58.9,43.8,46.0,42.1,38.0,88,58,29,30.02,29.87,0,0,0,0.00
2013-10-23,80.1,63.8,47.3,50.0,46.4,43.0,92,57,28,29.99,29.88,6,0,0,0.00
2013-10-24,71.3,61.6,50.4,49.0,44.5,38.0,80,55,38,30.17,29.88,17,1,0,0.00
2013-10-25,64.8,53.9,44.5,42.0,38.5,33.0,78,58,38,30.30,30.12,7,0,0,0.00
2013-10-26,68.8,57.4,51.3,63.0,52.9,42.0,100,85,68,30.12,29.92,11,0,0,1.00
2013-10-27,61.8,59.4,55.6,62.0,54.0,-99.9,100,96,91,29.99,29.88,0,0,0,0.00
2013-10-28,71.8,63.1,53.3,71.0,52.8,-99.9,100,88,38,29.97,29.87,5,0,0,0.01
2013-10-29,74.0,70.8,67.4,68.0,66.6,64.0,93,86,79,29.93,29.84,16,3,0,0.00
2013-10-30,71.6,67.9,64.2,69.0,62.6,-99.9,100,92,85,29.86,29.64,12,4,0,0.35
2013-10-31,72.3,66.3,54.2,72.0,56.4,43.0,100,74,35,29.72,29.50,12,1,0,0.01
2013-11-1,73.5,51.5,48.9,48.0,21.5,-99.9,86,52,31,29.94,29.69,11,-115,0,0.00
2013-11-2,65.2,51.5,46.0,43.0,29.3,-99.9,77,51,26,30.17,29.95,16,-50,0,0.00
2013-11-3,64.5,53.3,41.6,44.0,37.8,33.0,77,58,34,30.09,29.88,11,1,0,0.00
2013-11-4,60.5,56.5,54.1,61.0,50.8,44.0,100,82,65,29.96,29.86,11,1,0,0.38
2013-11-5,62.7,24.4,60.5,63.0,-35.9,-99.9,100,40,100,29.94,29.79,10,-603,0,0.42
2013-11-6,-200.0,0.0,200.0,-99.9,-99.9,-99.9,0,0,100,30.23,29.80,0,-999,0,0.00
2013-11-7,-200.0,0.0,200.0,-99.9,-99.9,-99.9,0,0,100,30.36,30.23,0,-999,0,0.00
2013-11-8,-200.0,0.0,200.0,-99.9,-99.9,-99.9,0,0,100,30.24,29.98,0,-999,0,0.00
2013-11-9,-200.0,0.0,200.0,-99.9,-99.9,-99.9,0,0,100,30.10,29.97,0,-999,0,0.00
2013-11-10,-200.0,0.0,200.0,-99.9,-99.9,-99.9,0,0,100,30.22,30.11,0,-999,0,0.00
2013-11-11,-200.0,0.0,200.0,-99.9,-99.9,-99.9,0,0,100,30.16,30.03,0,-999,0,0.00
2013-11-12,-200.0,0.0,200.0,-99.9,-99.9,-99.9,0,0,100,30.55,30.15,0,-999,0,0.00
2013-11-13,-200.0,0.0,200.0,-99.9,-99.9,-99.9,0,0,100,30.55,30.22,0,-999,0,0.00
2013-11-14,-200.0,0.0,200.0,-99.9,-99.9,-99.9,0,0,100,30.21,29.87,0,-999,0,0.00
2013-11-15,-200.0,0.0,200.0,-99.9,-99.9,-99.9,0,0,100,29.86,29.69,0,-999,0,0.00
2013-11-16,-200.0,0.0,200.0,-99.9,-99.9,-99.9,0,0,100,29.71,29.51,0,-999,0,0.00
2013-11-17,-200.0,0.0,200.0,-99.9,-99.9,-99.9,0,0,100,29.90,29.53,0,-999,0,0.00
2013-11-18,-200.0,0.0,200.0,-99.9,-99.9,-99.9,0,0,100,30.07,29.90,0,-999,0,0.00
2013-11-19,-200.0,0.0,200.0,-99.9,-99.9,-99.9,0,0,100,30.06,29.88,0,-999,0,0.00
2013-11-20,-200.0,0.0,200.0,-99.9,-99.9,-99.9,0,0,100,29.90,29.74,0,-999,0,0.00
2013-11-21,-200.0,0.0,200.0,-99.9,-99.9,-99.9,0,0,100,30.10,29.81,0,-999,0,0.00
2013-11-22,-200.0,0.0,200.0,-99.9,-99.9,-99.9,0,0,100,30.32,30.10,0,-999,0,0.00
2013-11-23,-200.0,0.0,200.0,-99.9,-99.9,-99.9,0,0,100,30.42,30.30,0,-999,0,0.00
2013-11-24,-200.0,0.0,200.0,-99.9,-99.9,-99.9,0,0,100,30.46,30.20,0,-999,0,0.00
2013-11-25,-200.0,0.0,200.0,-99.9,-99.9,-99.9,0,0,100,30.20,30.02,0,-999,0,0.00
2013-11-26,-200.0,0.0,200.0,-99.9,-99.9,-99.9,0,0,100,30.23,29.99,0,-999,0,0.00
2013-11-27,-200.0,0.0,200.0,-99.9,-99.9,-99.9,0,0,100,30.31,30.19,0,-999,0,0.00
2013-11-28,-200.0,0.0,200.0,-99.9,-99.9,-99.9,0,0,100,30.30,30.19,0,-999,0,0.00
2013-11-29,-200.0,0.0,200.0,-99.9,-99.9,-99.9,0,0,100,30.36,30.19,0,-999,0,0.00
2013-11-30,-200.0,0.0,200.0,-99.9,-99.9,-99.9,0,0,100,30.20,29.99,0,-999,0,0.00
2013-12-1,-200.0,0.0,200.0,-99.9,-99.9,-99.9,0,0,100,30.00,29.75,0,-999,0,0.00
2013-12-2,-200.0,0.0,200.0,-99.9,-99.9,-99.9,0,0,100,29.75,29.52,0,-999,0,0.00
2013-12-3,-200.0,0.0,200.0,-99.9,-99.9,-99.9,0,0,100,29.54,29.37,0,-999,0,0.00
2013-12-4,-200.0,0.0,200.0,-99.9,-99.9,-99.9,0,0,100,29.76,29.41,0,-999,0,0.00
2013-12-5,-200.0,0.0,200.0,-99.9,-99.9,-99.9,0,0,100,30.04,29.77,0,-999,0,0.00
2013-12-6,-200.0,0.0,200.0,-99.9,-99.9,-99.9,0,0,100,30.36,29.99,0,-999,0,0.00
2013-12-7,-200.0,0.0,200.0,-99.9,-99.9,-99.9,0,0,100,30.41,30.10,0,-999,0,0.00
2013-12-8,-200.0,0.0,200.0,-99.9,-99.9,-99.9,0,0,100,30.11,29.88,0,-999,0,0.00
2013-12-9,-200.0,0.0,200.0,-99.9,-99.9,-99.9,0,0,100,30.26,30.01,0,-999,0,0.00
2013-12-10,-200.0,0.0,200.0,-99.9,-99.9,-99.9,0,0,100,30.36,30.18,0,-999,0,0.00
2013-12-11,-200.0,0.0,200.0,-99.9,-99.9,-99.9,0,0,100,30.45,30.16,0,-999,0,0.00
2013-12-12,-200.0,0.0,200.0,-99.9,-99.9,-99.9,0,0,100,30.47,30.15,0,-999,0,0.00
2013-12-13,-200.0,0.0,200.0,-99.9,-99.9,-99.9,0,0,100,30.15,29.65,0,-999,0,0.00
2013-12-14,-200.0,0.0,200.0,-99.9,-99.9,-99.9,0,0,100,30.17,29.65,0,-999,0,0.00
2013-12-15,-200.0,0.0,200.0,-99.9,-99.9,-99.9,0,0,100,30.18,30.07,0,-999,0,0.00
2013-12-16,-200.0,0.0,200.0,-99.9,-99.9,-99.9,0,0,100,30.09,29.99,0,-999,0,0.00
2013-12-17,-200.0,0.0,200.0,-99.9,-99.9,-99.9,0,0,100,30.15,30.04,0,-999,0,0.00
2013-12-18,-200.0,0.0,200.0,-99.9,-99.9,-99.9,0,0,100,30.12,29.83,0,-999,0,0.00
2013-12-19,-200.0,0.0,200.0,-99.9,-99.9,-99.9,0,0,100,29.83,29.59,0,-999,0,0.00
2013-12-20,-200.0,0.0,200.0,-99.9,-99.9,-99.9,0,0,100,29.73,29.60,0,-999,0,0.00
2013-12-21,-200.0,0.0,200.0,-99.9,-99.9,-99.9,0,0,100,29.65,29.34,0,-999,0,0.00
2013-12-22,-200.0,0.0,200.0,-99.9,-99.9,-99.9,0,0,100,30.25,29.66,0,-999,0,0.00
2013-12-23,-200.0,0.0,200.0,-99.9,-99.9,-99.9,0,0,100,30.43,30.24,0,-999,0,0.00
2013-12-24,-200.0,0.0,200.0,-99.9,-99.9,-99.9,0,0,100,30.41,30.11,0,-999,0,0.00
2013-12-25,-200.0,0.0,200.0,-99.9,-99.9,-99.9,0,0,100,30.27,30.12,0,-999,0,0.00
2013-12-26,-200.0,0.0,200.0,-99.9,-99.9,-99.9,0,0,100,30.30,30.18,0,-999,0,0.00
2013-12-27,-200.0,0.0,200.0,-99.9,-99.9,-99.9,0,0,100,30.30,30.19,0,-999,0,0.00
2013-12-28,-200.0,0.0,200.0,-99.9,-99.9,-99.9,0,0,100,30.18,29.82,0,-999,0,0.00
2013-12-29,-15.1,-0.2,-15.1,-99.9,-99.9,-99.9,0,0,100,30.23,29.79,157,-987,0,0.00
2013-12-30,-200.0,0.0,200.0,-99.9,-99.9,-99.9,0,0,100,30.27,30.11,0,-999,0,0.00
2013-12-31,-200.0,0.0,200.0,-99.9,-99.9,-99.9,0,0,100,30.28,30.05,0,-999,0,0.00
2014-1-1,-200.0,0.0,200.0,-99.9,-99.9,-99.9,0,0,100,30.05,29.70,0,-999,0,0.00
2014-1-2,-200.0,0.0,200.0,-99.9,-99.9,-99.9,0,0,100,30.33,30.05,0,-999,0,0.00